Loisir ou Compétition : Rejoignez un Club de la Fédération

Résultats

GRAND PRIX DU MARCELLY

PRAS DE LYS

POURS-D Hommes

Jury de Compétition

Délégué Technique :
GADIOLET GIRARD JEAN (MB)
D.T. Adjoint :
 
Dir. Epreuve :
BOIVIN SICART FABRICE (MB)

Caractéristiques de la Piste

Piste :
BELVEDERE DES ARAVIS
Distance :
3+3 km
Point Haut :
1440 m
Point Bas :
1395 m
Montée Tot. :
174 m
Montée Max. :
27 m
Homologation :
 

Pénalité Appliquée :
 
Coefficient :
 

Catégorie :
MIN
Style :
X

29/01/06 - FMBM0311

CltDosClt/CatCodeAnNom PrénomComClubTempsEcartPoints
11291/MINFFS22942811992VERNEY CHARLYMBSC GD BORNAN21:55.200:00.0
21422/MINFFS26140641992DUPERREX LUCASMBCS CHAMONIX23:26.901:31.7
31223/MINFFS26019601992GRENIER CLEMENTMBCS ARGENTIER23:38.501:43.3
41394/MINFFS26239571992VERNAZ PIEMONT JULIENMBSC ABONDANCE23:40.501:45.3
51545/MINFFS23245301992AGNELLET GERARDMBCS LA CLUSAZ23:52.201:57.0
61536/MINFFS26132131992PERRILLAT LUCMBSC GD BORNAN23:56.402:01.2
71457/MINFFS26164611992REYNARD BASTIENMBSCNP ROCHOIS24:10.902:15.7
81528/MINFFS26140661992VOUILLAMOZ SYLVAINMBCS CHAMONIX24:13.902:18.7
91669/MINFFS26140691992CLAUDON MAXIMEMBCS CHAMONIX24:17.302:22.1
1012610/MINFFS26218741993PHILIPOT MICKAELMBSCNP ROCHOIS24:30.502:35.3
1116311/MINFFS26132161992PESSEY OSCARMBSC GD BORNAN24:40.002:44.8
1212812/MINFFS23544771993EKSTEROWICZ GAETANMBCS LA CLUSAZ24:50.702:55.5
1316513/MINFFS26029981993VIEVILLE NICOLASMBLES HOUCHES24:51.302:56.1
1413314/MINFFS23243281992CONDEVAUX NICOLASMBVILLARD/BOEG24:57.303:02.1
1514115/MINFFS26219611993BITON GUILLAUMEMBVILLARD/BOEG25:15.203:20.0
1614616/MINFFS26140681992TRICHET VICTORMBCS CHAMONIX25:16.403:21.2
1714917/MINFFS26206581993OSTERBERGER THIBAULTMBCS CHAMONIX25:26.103:30.9
1814718/MINFFS26060141993PAIS VICTORMBLES GETS S.C25:30.003:34.8
1914819/MINFFS22626221992GOUJON ANTOINEMBCS CHAMONIX25:41.203:46.0
2012320/MINFFS26134321992MENOLI JONATHANMBSC D'AGY25:43.103:47.9
2114321/MINFFS26219451992ARMINJON MICKAELMBNORD.TANINGE25:44.303:49.1
2214422/MINFFS26205831993DUMONT CLEMENTMBCS CHAMONIX25:51.203:56.0
2316723/MINFFS23535711993PARISSE CLEMENTMBCS MEGEVE25:53.403:58.2
2413624/MINFFS26132121992MISSILLIER QUENTINMBSC GD BORNAN25:55.704:00.5
2515725/MINFFS26215931993CHESNAIS ROMAINMBSC GD BORNAN26:04.004:08.8
2615626/MINFFS26200011993MUNIER REMIMBVILLARD/BOEG26:09.104:13.9
2713027/MINFFS26228961993WILLIG CLEMENTMBSC GD BORNAN26:09.704:14.5
2816928/MINFFS26169381992COUDURIER JULIENMBNORD.TANINGE26:22.904:27.7
2915129/MINFFS26155481992AMOUDRUZ ANTHONYMBNORD.TANINGE26:24.204:29.0
3013430/MINFFS26185861993AGNELLET GEOFFREYMBCS LA CLUSAZ26:31.104:35.9
3113231/MINFFS26132851992COSTAZ REMIMBVILLARD/BOEG26:36.004:40.8
3217032/MINFFS26218771993ANDRE KEVINMBSCNP ROCHOIS26:51.004:55.8
3316233/MINFFS23538891992JACOB VALENTINMBSCNP ROCHOIS27:14.605:19.4
3413834/MINFFS23234491993CHOUPIN PIERREMBLES HOUCHES27:16.805:21.6
3513135/MINFFS26155361992PRONNIER DAMIENMBSC GD BORNAN27:19.405:24.2
3616436/MINFFS23240351992SIMKO PABLOMBLES HOUCHES27:21.005:25.8
3712537/MINFFS26047311992DEWAELE ROMAINMBLES GETS S.C27:30.105:34.9
3812438/MINFFS26258181993BEAUBEAU RUFINMBVILLARD/BOEG27:52.805:57.6
3915039/MINFFS23535771993BARRANCA ALEXISMBCS MEGEVE28:30.206:35.0
4013740/MINFFS26220071993MARSURA JEREMYMBSC MIEUSSY28:54.306:59.1
4115541/MINFFS26219431993CHMARGOUNOF KEVINMBNORD.TANINGE28:56.907:01.7
4216142/MINFFS26057391993CUNY NICOLASMBSCNP ROCHOIS29:38.507:43.3
4315943/MINFFS26200301993NEAU ARTHURMBVILLARD/BOEG30:02.308:07.1
4415844/MINFFS26258241993HANQUIER MAXIMEMBVILLARD/BOEG30:16.608:21.4
4512745/MINFFS23544831993COUDER THEOMBCS LA CLUSAZ30:50.608:55.4
4612146/MINFFS26176921993LE BERRE MARTINMBCS MEGEVE31:48.609:53.4
Non partants
135FFS26219601992DUBOUCHET REMYMBVILLARD/BOEG
140FFS26183071993GOY KILIANMBCS LA CLUSAZ
160FFS26199981993AMARAL MARCMBVILLARD/BOEG
168FFS26140651992PELLE GUILLAUMEMBCS CHAMONIX